Regional Weather Roundup
Issued by NWS

Home | Current Version | Previous Version | Text Only | Print | Product List | Glossary Off
Versions: 1 2 3 4 5 6 7 8 9 10 11 12 13 14 15 16 17 18 19 20 21 22 23 24 25 26 27 28 29 30 31 32 33 34 35 36 37 38 39 40 41 42 43 44 45 46 47 48 49 50

000
ASUS43 KIND 251959
RWRIN

WEATHER ROUNDUP FOR INDIANA
NATIONAL WEATHER SERVICE INDIANAPOLIS IN
400 PM EDT FRI JUL 25 2014

NOTE: "FAIR" INDICATES FEW OR NO CLOUDS BELOW 12,000 FEET WITH NO
SIGNIFICANT WEATHER AND/OR OBSTRUCTIONS TO VISIBILITY.

* - STATION DOES NOT REPORT WEATHER SUCH AS PRECIPITATION OR FOG.

+ - STATION NOT QUALITY CONTROLLED BY THE NATIONAL WEATHER SERVICE.
    USE DATA WITH CAUTION...ESPECIALLY DEWPOINT AND RELATIVE
    HUMIDITY OBSERVATIONS.

INZ001>003-010>013-019-020-252100-
NORTHWEST INDIANA

CITY           SKY/WX    TMP DP  RH WIND       PRES   REMARKS
GARY /AIRPORT/ PTSUNNY   73  57  56 SW15      29.98R
KNOX *+        PTSUNNY   74  57  55 SW15      29.97F
MONTICELLO +   CLOUDY    70  58  66 S7        29.98F
RENSSELAER +   CLOUDY    72  59  64 S12G17    29.98F
VALPARAISO     PTSUNNY   73  57  57 S12G23    29.97F

$$

LMZ046-743>745-252100-
SOUTHERN LAKE MICHIGAN

STATION/POSITION TIME  TEMP WIND        PRES
                       AIR  DIR/SP/G
                 (UTC) (F)  (DEG/KT/KT) (MB)
BURNS HARBOR     1900   73  200/ 16/ 24 1015.2F
MICHIGAN CITY    1900   71  180/ 14/ 18   N/A

$$

INZ004-005-014>016-021>024-252100-
NORTH CENTRAL INDIANA

CITY           SKY/WX    TMP DP  RH WIND       PRES   REMARKS
ELKHART        MOSUNNY   73  55  53 SW9       29.98F
GOSHEN         CLOUDY    74  56  53 SW13      29.99F
SOUTH BEND     CLOUDY    75  56  51 SW14      29.97F
WARSAW +       CLOUDY    72  55  56 S7G18     30.01S

$$

INZ006>009-017-018-025>027-252100-
NORTHEAST INDIANA

CITY           SKY/WX    TMP DP  RH WIND       PRES   REMARKS
ANGOLA *+      MOSUNNY   73  55  53 SW10      30.01R
AUBURN +       PTSUNNY   73  52  46 SW7       30.01F
FORT WAYNE     PTSUNNY   75  55  49 S12       30.01F

$$

INZ028-029-035-036-043>045-051>053-252100-
WEST CENTRAL INDIANA

CITY           SKY/WX    TMP DP  RH WIND       PRES   REMARKS
GREENCASTLE +  CLOUDY    68  57  68 S8        30.01F
LAFAYETTE      CLOUDY    70  57  63 S9        29.99F
TERRE HAUTE    CLOUDY    70  59  68 S20       29.91F

$$

INZ030>032-037>040-046>048-054>057-064-065-252100-
CENTRAL INDIANA

CITY           SKY/WX    TMP DP  RH WIND       PRES   REMARKS
ANDERSON       SUNNY     73  55  53 S12       30.05F
INDIANAPOLIS   CLOUDY    72  56  57 SW12      30.02F
-EAGLE CREEK   CLOUDY    73  55  53 SW12      30.03F
KOKOMO *+      CLOUDY    73  55  53 SW13      30.02F
MT COMFORT *+  CLOUDY    72  59  64 S9        30.05F
SHELBYVILLE    CLOUDY    75  57  53 SW7       30.04F
ZIONSVILLE +   CLOUDY    72  55  53 SW8       30.03F

$$

INZ033-034-041-042-049-050-058-059-252100-
EAST CENTRAL INDIANA

CITY           SKY/WX    TMP DP  RH WIND       PRES   REMARKS
MUNCIE         CLOUDY    73  52  47 SW8       30.04F

$$

INZ060-061-067>069-081>083-085>088-252100-
SOUTHWEST INDIANA

CITY           SKY/WX    TMP DP  RH WIND       PRES   REMARKS
EVANSVILLE     CLOUDY    79  55  43 NE8       30.07R
HUNTINGBURG *+ PTSUNNY   79  57  47 W6        30.07S

$$

INZ062-063-066-070>080-084-089>092-252100-
SOUTH CENTRAL AND SOUTHEAST INDIANA

CITY           SKY/WX    TMP DP  RH WIND       PRES   REMARKS
BLOOMINGTON    CLOUDY    72  59  63 W6        30.08F
SEYMOUR +      CLOUDY    73  41  31 CALM      30.04

$$




USA.gov is the U.S. government's official web portal to all federal, state and local government web resources and services.